| time (UTC) | temp C | wind direction | speed KPH | gust KPH | rain 1hr cm | rain 24hr cm | rain mn cm | humidity % | barometer mb |
| 20260506034156 | 12 | 325 | 0.0 | 3.2 | 0.00 | 0.00 | 0.00 | 76 | 1011.3 |
| 20260506033657 | 12 | 350 | 1.6 | 3.2 | 0.00 | 0.00 | 0.00 | 75 | 1011.6 |
| 20260506033156 | 13 | 350 | 1.6 | 3.2 | 0.00 | 0.00 | 0.00 | 75 | 1011.4 |
| 20260506032656 | 13 | 179 | 0.0 | 4.8 | 0.00 | 0.00 | 0.00 | 76 | 1011.4 |
| 20260506032158 | 13 | 285 | 3.2 | 4.8 | 0.00 | 0.00 | 0.00 | 76 | 1011.4 |
| 20260506031657 | 13 | 246 | 0.0 | 4.8 | 0.00 | 0.00 | 0.00 | 75 | 1011.5 |
| 20260506031156 | 13 | 252 | 3.2 | 4.8 | 0.00 | 0.00 | 0.00 | 75 | 1011.5 |
| 20260506030657 | 13 | 219 | 1.6 | 4.8 | 0.00 | 0.00 | 0.00 | 75 | 1011.5 |
| 20260506025659 | 13 | 300 | 0.0 | 4.8 | 0.00 | 0.00 | 0.00 | 74 | 1011.6 |
| 20260506025156 | 13 | 237 | 3.2 | 4.8 | 0.00 | 0.00 | 0.00 | 74 | 1011.4 |
| 20260506024657 | 13 | 236 | 0.0 | 9.7 | 0.00 | 0.00 | 0.00 | 74 | 1011.5 |
| 20260506024159 | 13 | 148 | 3.2 | 9.7 | 0.00 | 0.00 | 0.00 | 75 | 1011.4 |
| 20260506023658 | 13 | 231 | 3.2 | 6.4 | 0.00 | 0.00 | 0.00 | 75 | 1011.1 |
| 20260506023157 | 13 | 135 | 3.2 | 6.4 | 0.00 | 0.00 | 0.00 | 76 | 1011.2 |
| 20260506022659 | 12 | 156 | 0.0 | 3.2 | 0.00 | 0.00 | 0.00 | 76 | 1011.5 |
| 20260506022158 | 12 | 111 | 0.0 | 1.6 | 0.00 | 0.00 | 0.00 | 73 | 1011.4 |
| 20260506021656 | 13 | 271 | 0.0 | 0.0 | 0.00 | 0.00 | 0.00 | 72 | 1011.3 |
| 20260506021200 | 13 | 272 | 0.0 | 1.6 | 0.00 | 0.00 | 0.00 | 73 | 1011.4 |
| 20260506020159 | 13 | 285 | 0.0 | 3.2 | 0.00 | 0.00 | 0.00 | 72 | 1011.3 |
| 20260506015157 | 13 | 285 | 0.0 | 1.6 | 0.00 | 0.00 | 0.00 | 69 | 1011.3 |
| 20260506014656 | 14 | 311 | 0.0 | 3.2 | 0.00 | 0.00 | 0.00 | 69 | 1011.7 |
| 20260506014201 | 14 | 311 | 0.0 | 3.2 | 0.00 | 0.00 | 0.00 | 68 | 1011.5 |
| 20260506013644 | 14 | 218 | 0.0 | 4.8 | 0.00 | 0.00 | 0.00 | 68 | 1011.3 |
| 20260506013146 | 14 | 217 | 0.0 | 4.8 | 0.00 | 0.00 | 0.00 | 68 | 1011.5 |
| 20260506012646 | 14 | 271 | 0.0 | 3.2 | 0.00 | 0.00 | 0.00 | 68 | 1011.3 |
| 20260506012145 | 15 | 353 | 3.2 | 3.2 | 0.00 | 0.00 | 0.00 | 67 | 1011.5 |
| 20260506011647 | 15 | 351 | 0.0 | 3.2 | 0.00 | 0.00 | 0.00 | 65 | 1011.4 |
| 20260506011144 | 15 | 50 | 0.0 | 3.2 | 0.00 | 0.00 | 0.00 | 65 | 1011.7 |
| 20260506010645 | 15 | 224 | 0.0 | 6.4 | 0.00 | 0.00 | 0.00 | 64 | 1011.5 |
| 20260506010146 | 15 | 146 | 0.0 | 6.4 | 0.00 | 0.00 | 0.00 | 64 | 1011.5 |
| 20260506005143 | 15 | 201 | 1.6 | 3.2 | 0.00 | 0.00 | 0.00 | 63 | 1011.5 |
| 20260506004646 | 16 | 107 | 0.0 | 3.2 | 0.00 | 0.00 | 0.00 | 63 | 1011.5 |
| 20260506004145 | 16 | 237 | 0.0 | 3.2 | 0.00 | 0.00 | 0.00 | 63 | 1011.7 |
| 20260506003148 | 16 | 126 | 1.6 | 6.4 | 0.00 | 0.00 | 0.00 | 61 | 1011.6 |
| 20260506002646 | 16 | 107 | 3.2 | 6.4 | 0.00 | 0.00 | 0.00 | 61 | 1011.8 |
| 20260506002146 | 16 | 80 | 3.2 | 6.4 | 0.00 | 0.00 | 0.00 | 61 | 1011.5 |
| 20260506001648 | 16 | 136 | 3.2 | 4.8 | 0.00 | 0.00 | 0.00 | 61 | 1011.5 |
| 20260506001145 | 16 | 89 | 1.6 | 11.3 | 0.00 | 0.00 | 0.00 | 61 | 1011.6 |
| 20260506000148 | 16 | 140 | 3.2 | 14.5 | 0.00 | 0.00 | 0.00 | 60 | 1011.6 |
| 20260505235145 | 16 | 96 | 3.2 | 12.9 | 0.00 | 0.00 | 0.00 | 60 | 1011.5 |
| 20260505234648 | 17 | 219 | 0.0 | 12.9 | 0.00 | 0.00 | 0.00 | 59 | 1011.8 |
| 20260505234145 | 17 | 229 | 0.0 | 6.4 | 0.00 | 0.00 | 0.00 | 59 | 1011.4 |
| 20260505233646 | 17 | 99 | 1.6 | 14.5 | 0.00 | 0.00 | 0.00 | 59 | 1011.6 |
| 20260505232646 | 17 | 127 | 3.2 | 9.7 | 0.00 | 0.00 | 0.00 | 59 | 1011.7 |
| 20260505231145 | 17 | 120 | 3.2 | 6.4 | 0.00 | 0.00 | 0.00 | 58 | 1011.8 |
| 20260505230149 | 17 | 146 | 4.8 | 14.5 | 0.00 | 0.00 | 0.00 | 57 | 1011.7 |
| 20260505225645 | 17 | 231 | 9.7 | 14.5 | 0.00 | 0.00 | 0.00 | 57 | 1012.0 |
| 20260505225144 | 17 | 105 | 1.6 | 6.4 | 0.00 | 0.00 | 0.00 | 56 | 1011.6 |
| 20260505224649 | 17 | 108 | 3.2 | 4.8 | 0.00 | 0.00 | 0.00 | 57 | 1011.9 |
| 20260505224146 | 17 | 231 | 4.8 | 9.7 | 0.00 | 0.00 | 0.00 | 56 | 1011.9 |
| 20260505223645 | 17 | 112 | 0.0 | 16.1 | 0.00 | 0.00 | 0.00 | 56 | 1012.0 |
| 20260505222646 | 17 | 194 | 4.8 | 16.1 | 0.00 | 0.00 | 0.00 | 56 | 1011.9 |
| 20260505221647 | 17 | 121 | 1.6 | 16.1 | 0.00 | 0.00 | 0.00 | 55 | 1011.8 |
| 20260505221145 | 17 | 89 | 1.6 | 16.1 | 0.00 | 0.00 | 0.00 | 55 | 1011.9 |
| 20260505220646 | 17 | 141 | 1.6 | 17.7 | 0.00 | 0.00 | 0.00 | 55 | 1011.7 |
| 20260505220146 | 17 | 135 | 4.8 | 24.1 | 0.00 | 0.00 | 0.00 | 55 | 1011.8 |
| 20260505215644 | 17 | 210 | 0.0 | 24.1 | 0.00 | 0.00 | 0.00 | 54 | 1011.9 |
| 20260505215144 | 17 | 226 | 9.7 | 17.7 | 0.00 | 0.00 | 0.00 | 54 | 1011.8 |
| 20260505214648 | 18 | 267 | 3.2 | 17.7 | 0.00 | 0.00 | 0.00 | 54 | 1011.7 |
| 20260505213643 | 18 | 187 | 6.4 | 20.9 | 0.00 | 0.00 | 0.00 | 53 | 1011.7 |
| 20260505213147 | 18 | 105 | 6.4 | 20.9 | 0.00 | 0.00 | 0.00 | 53 | 1011.6 |
| 20260505212645 | 18 | 92 | 6.4 | 17.7 | 0.00 | 0.00 | 0.00 | 53 | 1011.6 |
| 20260505212144 | 18 | 168 | 9.7 | 17.7 | 0.00 | 0.00 | 0.00 | 54 | 1011.7 |
| 20260505211647 | 18 | 149 | 1.6 | 17.7 | 0.00 | 0.00 | 0.00 | 53 | 1011.7 |
| 20260505211144 | 18 | 107 | 3.2 | 16.1 | 0.00 | 0.00 | 0.00 | 53 | 1011.9 |
| 20260505210643 | 18 | 136 | 9.7 | 17.7 | 0.00 | 0.00 | 0.00 | 53 | 1011.9 |
| 20260505205643 | 18 | 122 | 4.8 | 11.3 | 0.00 | 0.00 | 0.00 | 53 | 1011.8 |
| 20260505204145 | 18 | 109 | 8.0 | 22.5 | 0.00 | 0.00 | 0.00 | 52 | 1011.9 |
| 20260505203146 | 18 | 64 | 3.2 | 20.9 | 0.00 | 0.00 | 0.00 | 52 | 1011.6 |
| 20260505202644 | 18 | 76 | 4.8 | 12.9 | 0.00 | 0.00 | 0.00 | 51 | 1011.7 |
| 20260505202144 | 18 | 140 | 9.7 | 22.5 | 0.00 | 0.00 | 0.00 | 51 | 1011.7 |
| 20260505201646 | 19 | 145 | 6.4 | 22.5 | 0.00 | 0.00 | 0.00 | 51 | 1011.7 |
| 20260505201144 | 19 | 91 | 1.6 | 14.5 | 0.00 | 0.00 | 0.00 | 50 | 1011.7 |
| 20260505200643 | 19 | 214 | 3.2 | 17.7 | 0.00 | 0.00 | 0.00 | 50 | 1011.7 |
| 20260505200148 | 19 | 231 | 0.0 | 17.7 | 0.00 | 0.00 | 0.00 | 49 | 1011.4 |
| 20260505195646 | 19 | 32 | 9.7 | 16.1 | 0.00 | 0.00 | 0.00 | 48 | 1011.7 |
| 20260505195144 | 20 | 145 | 3.2 | 24.1 | 0.00 | 0.00 | 0.00 | 48 | 1011.5 |
| 20260505194646 | 20 | 145 | 6.4 | 24.1 | 0.00 | 0.00 | 0.00 | 47 | 1011.6 |
| 20260505194146 | 20 | 159 | 4.8 | 22.5 | 0.00 | 0.00 | 0.00 | 46 | 1011.6 |
| 20260505193147 | 20 | 140 | 6.4 | 16.1 | 0.00 | 0.00 | 0.00 | 45 | 1011.4 |
| 20260505192644 | 20 | 212 | 6.4 | 17.7 | 0.00 | 0.00 | 0.00 | 45 | 1011.3 |
| 20260505192146 | 20 | 196 | 1.6 | 17.7 | 0.00 | 0.00 | 0.00 | 45 | 1011.4 |
| 20260505191143 | 20 | 120 | 3.2 | 14.5 | 0.00 | 0.00 | 0.00 | 45 | 1011.2 |
| 20260505190148 | 21 | 124 | 8.0 | 17.7 | 0.00 | 0.00 | 0.00 | 44 | 1011.2 |
| 20260505185144 | 21 | 232 | 3.2 | 12.9 | 0.00 | 0.00 | 0.00 | 44 | 1011.3 |
| 20260505184143 | 21 | 78 | 0.0 | 12.9 | 0.00 | 0.00 | 0.00 | 42 | 1011.0 |
| 20260505183644 | 21 | 140 | 6.4 | 9.7 | 0.00 | 0.00 | 0.00 | 42 | 1011.2 |
| 20260505182644 | 21 | 89 | 1.6 | 6.4 | 0.00 | 0.00 | 0.00 | 41 | 1011.0 |
| 20260505182144 | 21 | 331 | 1.6 | 4.8 | 0.00 | 0.00 | 0.00 | 41 | 1011.0 |
| 20260505181647 | 21 | 168 | 1.6 | 4.8 | 0.00 | 0.00 | 0.00 | 40 | 1010.9 |
| 20260505181144 | 21 | 60 | 1.6 | 4.8 | 0.00 | 0.00 | 0.00 | 40 | 1010.9 |
| 20260505180648 | 22 | 81 | 1.6 | 11.3 | 0.00 | 0.00 | 0.00 | 39 | 1010.7 |
| 20260505175644 | 22 | 65 | 1.6 | 9.7 | 0.00 | 0.00 | 0.00 | 38 | 1010.7 |
| 20260505175145 | 22 | 100 | 3.2 | 9.7 | 0.00 | 0.00 | 0.00 | 37 | 1010.9 |
| 20260505174649 | 22 | 50 | 3.2 | 6.4 | 0.00 | 0.00 | 0.00 | 37 | 1010.7 |
| 20260505174145 | 22 | 91 | 3.2 | 11.3 | 0.00 | 0.00 | 0.00 | 37 | 1011.1 |
| 20260505173644 | 23 | 165 | 4.8 | 11.3 | 0.00 | 0.00 | 0.00 | 36 | 1011.0 |
| 20260505173146 | 23 | 234 | 1.6 | 14.5 | 0.00 | 0.00 | 0.00 | 36 | 1011.0 |
| 20260505172645 | 23 | 103 | 3.2 | 14.5 | 0.00 | 0.00 | 0.00 | 36 | 1011.0 |
| 20260505172146 | 23 | 94 | 3.2 | 20.9 | 0.00 | 0.00 | 0.00 | 36 | 1010.7 |
| 20260505171147 | 23 | 114 | 3.2 | 24.1 | 0.00 | 0.00 | 0.00 | 35 | 1010.9 |
| 20260505170646 | 24 | 13 | 0.0 | 14.5 | 0.00 | 0.00 | 0.00 | 35 | 1010.9 |
| 20260505170148 | 24 | 214 | 3.2 | 17.7 | 0.00 | 0.00 | 0.00 | 34 | 1010.6 |
| 20260505165645 | 24 | 92 | 3.2 | 17.7 | 0.00 | 0.00 | 0.00 | 34 | 1010.6 |
| 20260505165144 | 24 | 170 | 3.2 | 20.9 | 0.00 | 0.00 | 0.00 | 33 | 1010.7 |
| 20260505164648 | 24 | 116 | 6.4 | 20.9 | 0.00 | 0.00 | 0.00 | 32 | 1010.5 |
| 20260505164131 | 25 | 137 | 6.4 | 22.5 | 0.00 | 0.00 | 0.00 | 31 | 1010.6 |
| 20260505163637 | 25 | 237 | 12.9 | 22.5 | 0.00 | 0.00 | 0.00 | 31 | 1010.6 |
| 20260505163135 | 25 | 126 | 4.8 | 17.7 | 0.00 | 0.00 | 0.00 | 30 | 1010.5 |
| 20260505162633 | 25 | 218 | 6.4 | 17.7 | 0.00 | 0.00 | 0.00 | 29 | 1010.7 |
| 20260505162135 | 25 | 206 | 11.3 | 22.5 | 0.00 | 0.00 | 0.00 | 29 | 1010.7 |
| 20260505161633 | 26 | 119 | 1.6 | 22.5 | 0.00 | 0.00 | 0.00 | 29 | 1010.6 |
| 20260505161134 | 26 | 121 | 4.8 | 14.5 | 0.00 | 0.00 | 0.00 | 28 | 1010.6 |
| 20260505160635 | 26 | 160 | 4.8 | 16.1 | 0.00 | 0.00 | 0.00 | 27 | 1010.9 |
| 20260505160138 | 26 | 92 | 8.0 | 16.1 | 0.00 | 0.00 | 0.00 | 27 | 1010.9 |
| 20260505153132 | 26 | 116 | 6.4 | 27.4 | 0.00 | 0.00 | 0.00 | 28 | 1010.9 |
| 20260505152630 | 26 | 171 | 6.4 | 16.1 | 0.00 | 0.00 | 0.00 | 28 | 1011.0 |
| 20260505152130 | 26 | 174 | 9.7 | 16.1 | 0.00 | 0.00 | 0.00 | 28 | 1010.9 |
| 20260505151631 | 25 | 70 | 3.2 | 22.5 | 0.00 | 0.00 | 0.00 | 30 | 1010.9 |
| 20260505151131 | 25 | 104 | 3.2 | 22.5 | 0.00 | 0.00 | 0.00 | 30 | 1011.2 |
| 20260505150631 | 25 | 239 | 8.0 | 17.7 | 0.00 | 0.00 | 0.00 | 30 | 1011.2 |
| 20260505150132 | 25 | 227 | 6.4 | 16.1 | 0.00 | 0.00 | 0.00 | 29 | 1011.4 |
| 20260505140603 | 26 | 220 | 6.4 | 22.5 | 0.00 | 0.00 | 0.00 | 27 | 1011.9 |
| 20260505140115 | 26 | 277 | 3.2 | 25.7 | 0.00 | 0.00 | 0.00 | 27 | 1011.7 |
| 20260505124541 | 27 | 105 | 6.4 | 22.5 | 0.00 | 0.00 | 0.00 | 27 | 1011.9 |
| 20260505123545 | 27 | 104 | 8.0 | 25.7 | 0.00 | 0.00 | 0.00 | 25 | 1012.3 |
| 20260505122542 | 27 | 209 | 9.7 | 20.9 | 0.00 | 0.00 | 0.00 | 25 | 1012.3 |
| 20260505122043 | 27 | 114 | 1.6 | 22.5 | 0.00 | 0.00 | 0.00 | 28 | 1012.5 |
| 20260505121540 | 27 | 89 | 14.5 | 22.5 | 0.00 | 0.00 | 0.00 | 27 | 1012.3 |
| 20260505121042 | 27 | 134 | 8.0 | 22.5 | 0.00 | 0.00 | 0.00 | 28 | 1012.4 |
| 20260505120545 | 26 | 110 | 9.7 | 20.9 | 0.00 | 0.00 | 0.00 | 27 | 1012.4 |
| 20260505115540 | 27 | 100 | 8.0 | 29.0 | 0.00 | 0.00 | 0.00 | 27 | 1012.5 |
| 20260505115043 | 27 | 233 | 14.5 | 24.1 | 0.00 | 0.00 | 0.00 | 27 | 1012.8 |
| 20260505114541 | 27 | 194 | 6.4 | 27.4 | 0.00 | 0.00 | 0.00 | 27 | 1012.9 |
| 20260505113542 | 27 | 149 | 6.4 | 25.7 | 0.00 | 0.00 | 0.00 | 26 | 1012.8 |
| 20260505113041 | 27 | 326 | 3.2 | 24.1 | 0.00 | 0.00 | 0.00 | 26 | 1012.6 |
| 20260505112543 | 27 | 136 | 9.7 | 22.5 | 0.00 | 0.00 | 0.00 | 27 | 1012.7 |
| 20260505112039 | 27 | 118 | 8.0 | 22.5 | 0.00 | 0.00 | 0.00 | 27 | 1012.9 |
| 20260505111540 | 27 | 50 | 4.8 | 17.7 | 0.00 | 0.00 | 0.00 | 27 | 1012.9 |
| 20260505111040 | 27 | 156 | 12.9 | 20.9 | 0.00 | 0.00 | 0.00 | 28 | 1013.1 |
| 20260505110541 | 27 | 168 | 6.4 | 20.9 | 0.00 | 0.00 | 0.00 | 28 | 1013.1 |
| 20260505101531 | 26 | 110 | 6.4 | 29.0 | 0.00 | 0.00 | 0.00 | 26 | 1013.6 |
| 20260505100533 | 26 | 159 | 12.9 | 17.7 | 0.00 | 0.00 | 0.00 | 27 | 1013.9 |
| 20260505100031 | 26 | 248 | 9.7 | 17.7 | 0.00 | 0.00 | 0.00 | 28 | 1013.9 |
| 20260505095035 | 26 | 122 | 4.8 | 20.9 | 0.00 | 0.00 | 0.00 | 31 | 1013.9 |
| 20260505094530 | 26 | 76 | 4.8 | 22.5 | 0.00 | 0.00 | 0.00 | 31 | 1013.8 |
| 20260505094030 | 25 | 113 | 6.4 | 22.5 | 0.00 | 0.00 | 0.00 | 30 | 1013.9 |
| 20260505093533 | 25 | 187 | 12.9 | 25.7 | 0.00 | 0.00 | 0.00 | 29 | 1013.7 |
| 20260505092534 | 25 | 138 | 6.4 | 20.9 | 0.00 | 0.00 | 0.00 | 33 | 1014.0 |
| 20260505092034 | 25 | 126 | 9.7 | 20.9 | 0.00 | 0.00 | 0.00 | 34 | 1014.0 |
| 20260505091532 | 25 | 87 | 6.4 | 20.9 | 0.00 | 0.00 | 0.00 | 35 | 1014.1 |
| 20260505091030 | 24 | 135 | 6.4 | 16.1 | 0.00 | 0.00 | 0.00 | 35 | 1014.1 |
| 20260505090534 | 24 | 85 | 8.0 | 17.7 | 0.00 | 0.00 | 0.00 | 36 | 1014.1 |
| 20260505090031 | 23 | 255 | 11.3 | 17.7 | 0.00 | 0.00 | 0.00 | 36 | 1014.2 |
| 20260505085530 | 23 | 152 | 6.4 | 22.5 | 0.00 | 0.00 | 0.00 | 36 | 1014.5 |
| 20260505084530 | 23 | 117 | 9.7 | 20.9 | 0.00 | 0.00 | 0.00 | 38 | 1014.5 |
| 20260505084031 | 23 | 144 | 12.9 | 20.9 | 0.00 | 0.00 | 0.00 | 37 | 1014.2 |
| 20260505083533 | 22 | 102 | 6.4 | 22.5 | 0.00 | 0.00 | 0.00 | 39 | 1014.5 |
| 20260505083023 | 22 | 112 | 11.3 | 22.5 | 0.00 | 0.00 | 0.00 | 40 | 1014.5 |
| 20260505082509 | 22 | 127 | 6.4 | 17.7 | 0.00 | 0.00 | 0.00 | 41 | 1014.5 |
| 20260505082010 | 22 | 180 | 6.4 | 17.7 | 0.00 | 0.00 | 0.00 | 40 | 1014.5 |
| 20260505081512 | 22 | 116 | 6.4 | 22.5 | 0.00 | 0.00 | 0.00 | 41 | 1014.4 |
| 20260505081012 | 22 | 171 | 4.8 | 22.5 | 0.00 | 0.00 | 0.00 | 41 | 1014.4 |
| 20260505080510 | 22 | 121 | 4.8 | 12.9 | 0.00 | 0.00 | 0.00 | 40 | 1014.8 |
| 20260505080010 | 22 | 136 | 3.2 | 12.9 | 0.00 | 0.00 | 0.00 | 41 | 1014.7 |
| 20260505075510 | 22 | 87 | 6.4 | 14.5 | 0.00 | 0.00 | 0.00 | 42 | 1014.9 |
| 20260505075009 | 21 | 131 | 11.3 | 22.5 | 0.00 | 0.00 | 0.00 | 42 | 1014.8 |
| 20260505074010 | 21 | 115 | 3.2 | 9.7 | 0.00 | 0.00 | 0.00 | 43 | 1014.7 |
| 20260505073011 | 20 | 126 | 3.2 | 14.5 | 0.00 | 0.00 | 0.00 | 44 | 1014.9 |
| 20260505072509 | 20 | 71 | 6.4 | 14.5 | 0.00 | 0.00 | 0.00 | 43 | 1014.7 |
| 20260505072012 | 20 | 232 | 1.6 | 14.5 | 0.00 | 0.00 | 0.00 | 43 | 1015.1 |
| 20260505071517 | 20 | 115 | 6.4 | 12.9 | 0.00 | 0.00 | 0.00 | 43 | 1015.0 |
| 20260505071010 | 20 | 110 | 8.0 | 11.3 | 0.00 | 0.00 | 0.00 | 43 | 1015.1 |
| 20260505070511 | 20 | 118 | 3.2 | 11.3 | 0.00 | 0.00 | 0.00 | 45 | 1014.8 |
| 20260505070009 | 19 | 235 | 1.6 | 11.3 | 0.00 | 0.00 | 0.00 | 45 | 1014.7 |
| 20260505065510 | 19 | 119 | 1.6 | 9.7 | 0.00 | 0.00 | 0.00 | 44 | 1015.1 |
| 20260505065010 | 19 | 88 | 1.6 | 9.7 | 0.00 | 0.00 | 0.00 | 45 | 1015.0 |
| 20260505064510 | 18 | 138 | 3.2 | 14.5 | 0.00 | 0.00 | 0.00 | 45 | 1015.0 |
| 20260505064011 | 18 | 139 | 4.8 | 14.5 | 0.00 | 0.00 | 0.00 | 45 | 1015.2 |
| 20260505063512 | 18 | 135 | 3.2 | 11.3 | 0.00 | 0.00 | 0.00 | 46 | 1015.1 |
| 20260505063011 | 18 | 65 | 1.6 | 9.7 | 0.00 | 0.00 | 0.00 | 45 | 1015.1 |
| 20260505062511 | 18 | 108 | 4.8 | 6.4 | 0.00 | 0.00 | 0.00 | 46 | 1015.1 |
| 20260505062016 | 17 | 115 | 0.0 | 6.4 | 0.00 | 0.00 | 0.00 | 48 | 1015.1 |
| 20260505061500 | 17 | 43 | 0.0 | 6.4 | 0.00 | 0.00 | 0.00 | 49 | 1015.1 |
| 20260505060959 | 17 | 27 | 3.2 | 6.4 | 0.00 | 0.00 | 0.00 | 50 | 1015.2 |
| 20260505055959 | 16 | 142 | 0.0 | 4.8 | 0.00 | 0.00 | 0.00 | 51 | 1015.4 |
| 20260505054959 | 16 | 78 | 0.0 | 6.4 | 0.00 | 0.00 | 0.00 | 51 | 1015.3 |
| 20260505054500 | 15 | 168 | 0.0 | 4.8 | 0.00 | 0.00 | 0.00 | 52 | 1015.3 |
| 20260505053959 | 15 | 112 | 3.2 | 4.8 | 0.00 | 0.00 | 0.00 | 51 | 1015.3 |
| 20260505053500 | 15 | 131 | 0.0 | 4.8 | 0.00 | 0.00 | 0.00 | 51 | 1015.4 |
| 20260505052959 | 15 | 236 | 0.0 | 4.8 | 0.00 | 0.00 | 0.00 | 53 | 1015.2 |
| 20260505052458 | 15 | 134 | 1.6 | 3.2 | 0.00 | 0.00 | 0.00 | 54 | 1015.1 |
| 20260505052001 | 14 | 46 | 0.0 | 4.8 | 0.00 | 0.00 | 0.00 | 57 | 1015.5 |
| 20260505051459 | 14 | 46 | 0.0 | 4.8 | 0.00 | 0.00 | 0.00 | 57 | 1015.4 |
| 20260505050957 | 13 | 96 | 0.0 | 0.0 | 0.00 | 0.00 | 0.00 | 58 | 1015.4 |
| 20260505050502 | 13 | 96 | 0.0 | 0.0 | 0.00 | 0.00 | 0.00 | 65 | 1015.3 |
| 20260505041445 | 6 | 97 | 0.0 | 0.0 | 0.00 | 0.00 | 0.00 | 80 | 1015.6 |
| 20260505040947 | 6 | 97 | 0.0 | 0.0 | 0.00 | 0.00 | 0.00 | 80 | 1015.4 |
| 20260505040446 | 6 | 97 | 0.0 | 0.0 | 0.00 | 0.00 | 0.00 | 80 | 1015.3 |
| 20260505035944 | 5 | 97 | 0.0 | 0.0 | 0.00 | 0.00 | 0.00 | 79 | 1015.1 |
| 20260505034946 | 5 | 97 | 0.0 | 0.0 | 0.00 | 0.00 | 0.00 | 79 | 1015.2 |